#timestamp,LO_Frequency,Hit,StdDev 
1633978815.6,286047005.7,Y
1633978835.5,286047003.8,P
1633978855.3,286047004.4,N
1633978875.2,286047006.0,P
1633978895.9,286047005.7,Y
1633978915.7,286047001.9,P
1633978935.6,286047002.8,N
1633978955.4,286047002.6,P
1633978975.2,286047003.9,Y
1633978995.1,286046999.9,P
1633978996.0,286046999.9,N
1633979015.8,286046999.9,N
1633979035.7,286047000.7,N
1633979055.5,286047001.6,N
1633979075.3,286047005.5,Y
1633979095.2,286047000.0,P
1633979115.0,286046998.3,P
1633979115.9,286046998.3,N
1633979135.8,286047000.8,N
1633979155.6,286046998.2,N
1633979175.4,286047001.2,N
1633979195.3,286047002.5,N
1633979215.1,286047001.2,N
1633979235.8,286047000.7,N
1633979255.7,286046998.8,N
1633979275.5,286046999.0,N
1633979295.4,286047001.0,N
1633979315.2,286046999.3,N
1633979335.0,286046998.5,N
1633979335.9,286046998.5,N
1633979355.8,286047000.7,N
1633979375.6,286047000.1,N
1633979395.4,286047000.3,N
1633979415.3,286047002.5,N
1633979435.1,286046999.8,N
1633979455.9,286047002.0,N
1633979475.7,286047000.0,N
1633979495.5,286047000.4,N
1633979515.4,286047000.1,N
1633979535.2,286047000.1,N
1633979555.1,286047002.5,N
1633979556.0,286047002.5,N
1633979575.8,286047002.4,N
1633979595.6,286047002.4,N
1633979615.5,286047002.2,N
1633979635.3,286047002.4,N
1633979655.1,286047001.9,N
1633979675.9,286047004.4,Y
1633979695.7,286047001.9,P
1633979715.6,286047007.3,P
1633979735.4,286047005.6,N
1633979755.2,286047004.0,N
1633979775.1,286047004.4,N
1633979776.0,286047004.4,N
1633979795.8,286047002.3,N
1633979815.6,286047004.2,N
1633979835.5,286047001.6,N
1633979855.3,286047001.6,N
1633979875.2,286047002.2,N
1633979895.9,286046999.7,N
1633979915.7,286047000.9,N
1633979935.6,286046998.2,N
1633979955.4,286047001.2,N
1633979975.2,286046999.7,N
1633979995.1,286047002.1,N
1633979996.0,286047002.1,N
1633980015.8,286047002.6,N
1633980035.7,286047000.3,N
1633980055.5,286047002.3,N
1633980075.3,286047001.4,N
1633980095.2,286047001.7,N
1633980115.0,286047003.1,N
1633980115.9,286047003.1,N
1633980135.8,286047002.9,N
1633980155.6,286047005.3,N
1633980175.4,286047005.3,N
1633980195.3,286047003.9,N
1633980215.1,286047002.1,N
1633980235.8,286047002.7,N
1633980255.7,286047003.7,N
1633980275.5,286047003.1,N
1633980295.4,286047004.1,N
1633980315.2,286047001.7,N
1633980335.0,286047001.6,N
1633980335.9,286047001.6,N
1633980355.8,286047000.1,N
1633980375.6,286047002.5,N
1633980395.5,286047002.4,N
1633980415.3,286047000.1,N
1633980435.1,286047001.5,N
1633980455.9,286047002.6,N
1633980475.7,286047002.2,N
1633980495.5,286047001.6,N
1633980515.4,286047001.3,N
1633980535.2,286047001.4,N
1633980555.1,286047005.9,Y
1633980556.0,286047005.9,P
1633980575.8,286047000.4,N
1633980595.6,286046999.8,N
1633980615.5,286047002.5,N
1633980635.3,286047002.3,N
1633980655.2,286047000.0,N
1633980675.9,286047000.8,N
1633980695.7,286047001.0,N
1633980715.6,286046998.7,N
1633980735.4,286046999.2,N
1633980755.2,286046996.5,N
1633980775.1,286046999.4,N
1633980776.0,286046999.4,N
1633980795.8,286046998.7,N
1633980815.7,286046999.5,N
1633980835.5,286046998.7,N
1633980855.3,286046996.9,N
1633980875.2,286046998.7,N
1633980895.0,286046998.4,N
1633980895.9,286046998.4,N
1633980915.8,286046998.7,N
1633980935.6,286046998.2,N
1633980955.4,286046998.7,N
1633980975.3,286046999.1,N
1633980995.1,286047000.7,N
1633981015.8,286046998.2,N
1633981035.7,286046999.6,N
1633981055.5,286046998.7,N
1633981075.4,286046999.9,N
1633981095.2,286047000.4,N
1633981115.0,286046998.5,N
1633981115.9,286046998.5,N
1633981135.8,286047000.9,N
1633981155.6,286047000.7,N
1633981175.5,286046998.2,N
1633981195.3,286047001.2,N
1633981215.1,286047000.6,N
1633981235.9,286047001.1,N
1633981255.7,286046999.1,N
1633981275.5,286046999.5,N
1633981295.4,286046999.6,N
1633981315.2,286046998.6,N
1633981335.1,286047001.2,N
1633981336.0,286047001.2,N
1633981355.8,286047001.9,N
1633981375.6,286047002.4,N
1633981395.5,286047000.9,N
1633981415.3,286047000.0,N
1633981435.1,286047000.9,N
1633981455.9,286046998.7,N
1633981475.7,286046998.3,N
1633981495.6,286046998.9,N
1633981515.4,286047001.2,N
1633981535.2,286046998.8,N
1633981555.1,286047000.8,N
1633981556.0,286047000.8,N
1633981575.8,286046998.1,N
1633981595.7,286047000.7,N
1633981615.5,286046998.1,N
1633981635.3,286047000.8,N
1633981655.2,286047000.6,N
1633981675.0,286047000.5,N
1633981675.9,286047000.5,N
1633981695.7,286047000.4,N
1633981715.6,286047000.3,N
1633981735.4,286046998.1,N
1633981755.3,286047001.0,N
1633981775.1,286047001.0,N
1633981776.0,286047001.0,N
1633981795.8,286046998.5,N
1633981815.7,286047000.3,N
1633981835.5,286047002.3,N
1633981855.4,286047002.6,N
1633981875.2,286047000.3,N
1633981895.0,286046998.6,N
1633981895.9,286046998.6,N
1633981915.8,286046998.7,N
1633981935.6,286046997.0,N
1633981955.4,286046998.8,N
1633981975.3,286046998.2,N
1633981995.1,286047001.2,N
1633982015.9,286046998.2,N
1633982035.7,286046999.7,N
1633982055.5,286047001.7,N
1633982075.4,286047001.7,N
1633982095.2,286047002.1,N
1633982115.0,286047002.5,N
1633982115.9,286047002.5,N
1633982135.8,286047002.2,N
1633982155.6,286047001.7,N
1633982175.5,286047001.3,N
1633982195.3,286047002.8,N
1633982215.1,286047002.7,N
1633982235.9,286047000.1,N
1633982255.7,286047003.8,N
1633982275.6,286047004.1,N
1633982295.4,286047001.6,N
1633982315.2,286047002.8,N
1633982335.1,286047000.4,N
1633982336.0,286047000.4,N
1633982355.8,286047002.2,N
1633982375.6,286047002.0,N
1633982395.5,286047001.4,N
